Weather History for KEPH - December, 2013

Change the Weather History Date:

Monday, December 2, 2013

  Actual Average Record
Temperature  
Mean Temperature 37 °F 30 °F  
Max Temperature 45 °F 37 °F 57 °F (1977)
Min Temperature 29 °F 24 °F 2 °F (2006)
Degree Days  
Heating Degree Days 28 35  
Month to date heating degree days 55 69  
Since 1 July heating degree days 1424 1488  
Cooling Degree Days 0 0  
Month to date cooling degree days 0 0  
Year to date cooling degree days 1084 772  
Moisture  
Dew Point 19 °F    
Average Humidity 54    
Maximum Humidity 76    
Minimum Humidity 32    
Precipitation  
Precipitation 0.00 in 0.05 in 0.40 in (1985)
Month to date precipitation T 0.09  
Year to date precipitation 5.70 6.70  
Sea Level Pressure  
Sea Level Pressure 29.80 in    
Wind  
Wind Speed 15 mph (WNW)    
Max Wind Speed 29 mph    
Max Gust Speed 40 mph    
Visibility 10 miles    
Events      
T = Trace of Precipitation, MM = Missing Value Source: NWS Daily Summary

Daily Weather History Graph

Daily Weather History Graph

Search for Another Location

Airport or City:

Trip Planner

Search our weather history database for the weather conditions in past years. The results will help you decide how hot, cold, wet, or windy it might be!

Date:

Astronomy

Dec. 02, 2013 Rise Set
Actual Time 7:25 AM PST 4:09 PM PST
Civil Twilight 6:50 AM PST 4:44 PM PST
Nautical Twilight 6:12 AM PST 5:22 PM PST
Astronomical Twilight 5:35 AM PST 5:59 PM PST
Moon 6:53 AM PST (12/2) 4:19 PM PST (12/2)
Length of Visible Light 9h 53m
Length of Day
8h 43m
Waning Crescent, 0% of the Moon is Illuminated
Dec 2
Waning Crescent
Dec 2
New
Dec 9
First Quarter
Dec 17
Full
Dec 25
Last Quarter

Hourly Weather History & Observations

Time (PST) Temp. Windchill Dew Point Humidity Pressure Visibility Wind Dir Wind Speed Gust Speed Precip Events Conditions
12:53 AM 44.1 °F 35.7 °F 30.0 °F 58% 29.65 in 10.0 mi West 20.7 mph 29.9 mph N/A   Clear
1:53 AM 45.0 °F 35.6 °F 23.0 °F 42% 29.65 in 10.0 mi West 27.6 mph 39.1 mph N/A   Clear
2:53 AM 42.1 °F 35.2 °F 25.0 °F 51% 29.66 in 10.0 mi West 12.7 mph - N/A   Clear
3:53 AM 37.0 °F 29.3 °F 27.0 °F 67% 29.68 in 10.0 mi WNW 11.5 mph - N/A   Clear
4:53 AM 33.1 °F 24.4 °F 25.0 °F 72% 29.70 in 10.0 mi SW 11.5 mph - N/A   Clear
5:53 AM 36.0 °F 26.0 °F 23.0 °F 59% 29.70 in 10.0 mi WNW 17.3 mph - N/A   Clear
6:53 AM 35.1 °F 26.4 °F 21.9 °F 59% 29.73 in 10.0 mi WNW 12.7 mph - N/A   Clear
7:53 AM 34.0 °F 23.0 °F 24.1 °F 67% 29.73 in 10.0 mi NW 18.4 mph - N/A   Clear
8:53 AM 37.9 °F 32.1 °F 23.0 °F 55% 29.73 in 10.0 mi West 8.1 mph - N/A   Clear
9:53 AM 37.9 °F 30.5 °F 25.0 °F 60% 29.75 in 10.0 mi SSW 11.5 mph - N/A   Partly Cloudy
10:53 AM 39.9 °F 30.5 °F 23.0 °F 51% 29.75 in 10.0 mi West 19.6 mph 23.0 mph N/A   Clear
11:53 AM 43.0 °F 34.2 °F 19.0 °F 38% 29.75 in 10.0 mi West 20.7 mph - N/A   Partly Cloudy
12:53 PM 42.1 °F 34.2 °F 18.0 °F 38% 29.75 in 10.0 mi West 16.1 mph 27.6 mph N/A   Mostly Cloudy
1:53 PM 42.1 °F 34.2 °F 15.1 °F 34% 29.76 in 10.0 mi NW 16.1 mph - N/A   Mostly Cloudy
2:53 PM 41.0 °F 35.8 °F 14.0 °F 33% 29.79 in 10.0 mi WNW 8.1 mph - N/A   Overcast
3:53 PM 39.0 °F 32.8 °F 15.1 °F 38% 29.82 in 10.0 mi NW 9.2 mph - N/A   Overcast
4:53 PM 39.0 °F 32.3 °F 16.0 °F 39% 29.84 in 10.0 mi NW 10.4 mph - N/A   Overcast
5:53 PM 37.0 °F 27.4 °F 19.0 °F 48% 29.86 in 10.0 mi North 17.3 mph - N/A   Overcast
6:53 PM 33.1 °F 24.4 °F 16.0 °F 50% 29.91 in 10.0 mi North 11.5 mph - N/A   Overcast
7:53 PM 30.9 °F 21.7 °F 12.0 °F 46% 29.94 in 10.0 mi North 11.5 mph - N/A   Overcast
8:53 PM 30.0 °F 20.5 °F 10.0 °F 43% 29.96 in 10.0 mi North 11.5 mph - N/A   Overcast
9:53 PM 28.9 °F 18.2 °F 10.0 °F 45% 29.98 in 10.0 mi North 13.8 mph 26.5 mph N/A   Overcast
10:53 PM 28.9 °F 17.7 °F 12.0 °F 49% 30.00 in 10.0 mi NNW 15.0 mph - N/A   Overcast
11:53 PM 28.9 °F 15.8 °F 14.0 °F 54% 30.02 in 10.0 mi North 20.7 mph - N/A   Overcast